Time,TemperatureF,DewpointF,PressureIn,WindDirection,WindDirectionDegrees,WindSpeedMPH,WindSpeedGustMPH,Humidity,HourlyPrecipIn,Conditions,Clouds,dailyrainin,SoftwareType,DateUTC
2013-09-05 00:00:00,62.0,60.0,-100.00,West,264,0.0,0.0,94,0.00,,,-99.99,,2013-09-05 04:00:00,
2013-09-05 00:44:00,62.0,60.0,-100.00,West,264,0.0,0.0,94,0.00,,,-99.99,,2013-09-05 04:44:00,
2013-09-05 00:53:00,62.0,60.0,-100.00,West,264,0.0,0.0,94,0.00,,,-99.99,,2013-09-05 04:53:00,
2013-09-05 01:00:00,60.0,59.0,-100.00,West,264,0.0,0.0,97,0.00,,,-99.99,,2013-09-05 05:00:00,
2013-09-05 01:43:00,60.0,59.0,-100.00,West,264,0.0,0.0,97,0.00,,,-99.99,,2013-09-05 05:43:00,
2013-09-05 01:52:00,60.0,59.0,-100.00,West,264,0.0,0.0,97,0.00,,,-99.99,,2013-09-05 05:52:00,
2013-09-05 02:00:00,60.0,59.0,-100.00,West,264,0.0,0.0,98,0.00,,,-99.99,,2013-09-05 06:00:00,
2013-09-05 02:42:00,60.0,59.0,-100.00,West,264,0.0,0.0,98,0.00,,,-99.99,,2013-09-05 06:42:00,
2013-09-05 02:52:00,60.0,59.0,-100.00,West,264,0.0,0.0,98,0.00,,,-99.99,,2013-09-05 06:52:00,
2013-09-05 03:00:00,61.0,61.0,-100.00,West,277,0.0,1.0,98,0.00,,,-99.99,,2013-09-05 07:00:00,
2013-09-05 03:42:00,61.0,61.0,-100.00,West,277,0.0,1.0,98,0.00,,,-99.99,,2013-09-05 07:42:00,
2013-09-05 03:52:00,61.0,61.0,-100.00,West,277,0.0,1.0,98,0.00,,,-99.99,,2013-09-05 07:52:00,
2013-09-05 05:00:00,65.0,63.0,-100.00,West,266,0.0,4.0,94,0.00,,,-99.99,,2013-09-05 09:00:00,
2013-09-05 05:43:00,65.0,63.0,-100.00,West,266,0.0,4.0,94,0.00,,,-99.99,,2013-09-05 09:43:00,
2013-09-05 05:54:00,65.0,63.0,-100.00,West,266,0.0,4.0,94,0.00,,,-99.99,,2013-09-05 09:54:00,
2013-09-05 06:00:00,64.0,62.0,-100.00,NW,307,0.0,3.0,94,0.00,,,-99.99,,2013-09-05 10:00:00,
2013-09-05 06:43:00,64.0,62.0,-100.00,NW,307,0.0,3.0,94,0.00,,,-99.99,,2013-09-05 10:43:00,
2013-09-05 06:53:00,64.0,62.0,-100.00,NW,307,0.0,3.0,94,0.00,,,-99.99,,2013-09-05 10:53:00,
2013-09-05 07:00:00,64.0,62.0,-100.00,NNE,14,0.0,2.0,94,0.00,,,-99.99,,2013-09-05 11:00:00,
2013-09-05 07:43:00,64.0,62.0,-100.00,NNE,14,0.0,2.0,94,0.00,,,-99.99,,2013-09-05 11:43:00,
2013-09-05 07:52:00,64.0,62.0,-100.00,NNE,14,0.0,2.0,94,0.00,,,-99.99,,2013-09-05 11:52:00,
2013-09-05 08:00:00,72.0,63.0,-100.00,NNW,340,1.0,4.0,75,0.00,,,-99.99,,2013-09-05 12:00:00,
2013-09-05 08:42:00,72.0,63.0,-100.00,NNW,340,1.0,4.0,75,0.00,,,-99.99,,2013-09-05 12:42:00,
2013-09-05 08:52:00,72.0,63.0,-100.00,NNW,340,1.0,4.0,75,0.00,,,-99.99,,2013-09-05 12:52:00,
2013-09-05 09:00:00,75.0,62.0,-100.00,West,274,0.0,9.0,64,0.00,,,-99.99,,2013-09-05 13:00:00,
2013-09-05 09:42:00,75.0,62.0,-100.00,West,274,0.0,9.0,64,0.00,,,-99.99,,2013-09-05 13:42:00,
2013-09-05 09:53:00,75.0,62.0,-100.00,West,274,0.0,9.0,64,0.00,,,-99.99,,2013-09-05 13:53:00,
2013-09-05 10:00:00,77.0,63.0,-100.00,SSW,210,3.0,12.0,62,0.00,,,-99.99,,2013-09-05 14:00:00,
2013-09-05 10:42:00,77.0,63.0,-100.00,SSW,210,3.0,12.0,62,0.00,,,-99.99,,2013-09-05 14:42:00,
2013-09-05 10:52:00,77.0,63.0,-100.00,SSW,210,3.0,12.0,62,0.00,,,-99.99,,2013-09-05 14:52:00,
2013-09-05 11:00:00,79.0,61.0,-100.00,WNW,284,2.0,13.0,54,0.00,,,-99.99,,2013-09-05 15:00:00,
2013-09-05 11:44:00,79.0,61.0,-100.00,WNW,284,2.0,13.0,54,0.00,,,-99.99,,2013-09-05 15:44:00,
2013-09-05 11:54:00,79.0,61.0,-100.00,WNW,284,2.0,13.0,54,0.00,,,-99.99,,2013-09-05 15:54:00,
2013-09-05 12:00:00,79.0,61.0,-100.00,WSW,258,5.0,-999.0,55,-99.99,,,-99.99,,2013-09-05 16:00:00,
2013-09-05 12:43:00,79.0,61.0,-100.00,WSW,258,5.0,-999.0,55,-99.99,,,-99.99,,2013-09-05 16:43:00,
2013-09-05 12:54:00,79.0,61.0,-100.00,WSW,258,5.0,-999.0,55,-99.99,,,-99.99,,2013-09-05 16:54:00,
2013-09-05 13:00:00,80.0,62.0,-100.00,SW,236,5.0,11.0,53,0.00,,,-99.99,,2013-09-05 17:00:00,
2013-09-05 13:43:00,80.0,62.0,-100.00,SW,236,5.0,11.0,53,0.00,,,-99.99,,2013-09-05 17:43:00,
2013-09-05 13:52:00,80.0,62.0,-100.00,SW,236,5.0,11.0,53,0.00,,,-99.99,,2013-09-05 17:52:00,
2013-09-05 14:00:00,79.0,61.0,-100.00,SW,229,7.0,12.0,53,0.00,,,-99.99,,2013-09-05 18:00:00,
2013-09-05 14:43:00,79.0,61.0,-100.00,SW,229,7.0,12.0,53,0.00,,,-99.99,,2013-09-05 18:43:00,
2013-09-05 14:52:00,79.0,61.0,-100.00,SW,229,7.0,12.0,53,0.00,,,-99.99,,2013-09-05 18:52:00,
2013-09-05 15:00:00,80.0,61.0,-100.00,WSW,256,6.0,15.0,53,0.00,,,-99.99,,2013-09-05 19:00:00,
2013-09-05 15:42:00,80.0,61.0,-100.00,WSW,256,6.0,15.0,53,0.00,,,-99.99,,2013-09-05 19:42:00,
2013-09-05 15:52:00,80.0,61.0,-100.00,WSW,256,6.0,15.0,53,0.00,,,-99.99,,2013-09-05 19:52:00,
2013-09-05 16:00:00,80.0,61.0,-100.00,WSW,245,5.0,16.0,52,0.00,,,-99.99,,2013-09-05 20:00:00,
2013-09-05 16:43:00,80.0,61.0,-100.00,WSW,245,5.0,16.0,52,0.00,,,-99.99,,2013-09-05 20:43:00,
2013-09-05 16:52:00,80.0,61.0,-100.00,WSW,245,5.0,16.0,52,0.00,,,-99.99,,2013-09-05 20:52:00,
2013-09-05 17:00:00,77.0,62.0,-100.00,NNW,344,1.0,12.0,59,0.00,,,-99.99,,2013-09-05 21:00:00,
2013-09-05 17:44:00,77.0,62.0,-100.00,NNW,344,1.0,12.0,59,0.00,,,-99.99,,2013-09-05 21:44:00,
2013-09-05 17:54:00,77.0,62.0,-100.00,NNW,344,1.0,12.0,59,0.00,,,-99.99,,2013-09-05 21:54:00,
2013-09-05 18:00:00,78.0,61.0,-100.00,North,350,3.0,6.0,57,0.00,,,-99.99,,2013-09-05 22:00:00,
2013-09-05 18:43:00,78.0,61.0,-100.00,North,350,3.0,6.0,57,0.00,,,-99.99,,2013-09-05 22:43:00,
2013-09-05 18:53:00,78.0,61.0,-100.00,North,350,3.0,6.0,57,0.00,,,-99.99,,2013-09-05 22:53:00,
2013-09-05 19:00:00,74.0,59.0,-100.00,WNW,294,1.0,10.0,60,0.00,,,-99.99,,2013-09-05 23:00:00,
2013-09-05 19:42:00,74.0,59.0,-100.00,WNW,294,1.0,10.0,60,0.00,,,-99.99,,2013-09-05 23:42:00,
2013-09-05 19:53:00,74.0,59.0,-100.00,WNW,294,1.0,10.0,60,0.00,,,-99.99,,2013-09-05 23:53:00,
2013-09-05 20:00:00,71.0,56.0,-100.00,North,354,3.0,9.0,58,0.00,,,-99.99,,2013-09-06 00:00:00,
2013-09-05 20:42:00,71.0,56.0,-100.00,North,354,3.0,9.0,58,0.00,,,-99.99,,2013-09-06 00:42:00,
2013-09-05 20:52:00,71.0,56.0,-100.00,North,354,3.0,9.0,58,0.00,,,-99.99,,2013-09-06 00:52:00,
2013-09-05 21:00:00,69.0,51.0,-100.00,NW,308,2.0,8.0,54,0.00,,,-99.99,,2013-09-06 01:00:00,
2013-09-05 21:42:00,69.0,51.0,-100.00,NW,308,2.0,8.0,54,0.00,,,-99.99,,2013-09-06 01:42:00,
2013-09-05 21:52:00,69.0,51.0,-100.00,NW,308,2.0,8.0,54,0.00,,,-99.99,,2013-09-06 01:52:00,
2013-09-05 22:00:00,68.0,48.0,-100.00,ESE,108,6.0,8.0,49,0.00,,,-99.99,,2013-09-06 02:00:00,
2013-09-05 22:42:00,68.0,48.0,-100.00,ESE,108,6.0,8.0,49,0.00,,,-99.99,,2013-09-06 02:42:00,
2013-09-05 22:52:00,68.0,48.0,-100.00,ESE,108,6.0,8.0,49,0.00,,,-99.99,,2013-09-06 02:52:00,